Home   Weather   Esbjerg   Past weeks

Flag for Denmark Past Weather in Esbjerg, Denmark — Yesterday and Last 2 Weeks

Now
43 °F

Drizzle. Fog.


Feels Like: 35 °F
Forecast: 46 / 51 °F
Wind: 16 mph from Southwest

Location: Esbjerg Airport

Current Time: Dec 7, 2016 at 1:36:40 pm

Latest Report: Dec 7, 2016 at 1:20 pm


Visibility: 1 mi

Pressure: 30.15 "Hg

Humidity: 100%

Dew Point: 43 °F

Location of EsbjergLocation

Past Weather in Esbjerg — Graph

°F

Esbjerg Temperature Yesterday

Maximum temperature yesterday: 46 °F (at 11:20 am)
Minimum temperature yesterday: 39 °F (at 12:20 am)
Average temperature yesterday: 43 °F

High & Low Weather Summary for the Past Weeks

 TemperatureHumidityPressure
High50 °F (Nov 22, 12:20 pm)100% (Nov 23, 3:20 am)30.54 "Hg (Nov 23, 3:20 am)
Low23 °F (Dec 3, 3:50 am)57% (Nov 27, 12:50 pm)29.77 "Hg (Nov 22, 12:20 pm)
Average40 °F87%30.21 "Hg
* Reported Nov 22 12:20 pm — Dec 7 12:20 pm, Esbjerg, Weather by CustomWeather, © 2016

Note: Actual official high and low records may vary slightly from our data, if they occured in-between our weather recording intervals... More about our weather records

Advertising

Esbjerg Weather History for the Previous 24 Hours

Scroll right to see more
 ConditionsComfort  
Time TempWeatherWind HumidityBarometerVisibility
12:20 pm
Wed, Dec 7
43 °FDrizzle. Fog.15 mph100%30.18 "Hg1 mi
11:50 am41 °FDrizzle. Fog.17 mph100%30.18 "Hg1 mi
11:20 am41 °FDrizzle. Fog.16 mph93%30.21 "Hg1 mi
10:50 am39 °FDrizzle. Fog.17 mph100%30.21 "Hg1 mi
10:20 am39 °FSprinkles. Fog.20 mph93%30.24 "Hg2 mi
9:50 am39 °FSprinkles. Fog.20 mph93%30.24 "Hg2 mi
9:20 am39 °FDrizzle. Fog.18 mph93%30.24 "Hg2 mi
8:50 am39 °FDrizzle. Fog.17 mph93%30.24 "Hg3 mi
8:20 am37 °FDrizzle. Overcast.16 mph93%30.24 "Hg4 mi
7:50 am37 °FDrizzle. Overcast.16 mph93%30.27 "Hg4 mi
7:20 am37 °FDrizzle. Overcast.17 mph93%30.27 "Hg6 mi
6:50 am37 °FDrizzle. Overcast.17 mph87%30.30 "HgN/A
6:20 am37 °FPassing clouds.17 mph87%30.30 "HgN/A
5:50 am37 °FPassing clouds.16 mph87%30.30 "HgN/A
5:20 am37 °FPartly cloudy.14 mph87%30.33 "HgN/A
4:50 am37 °FPassing clouds.16 mph87%30.33 "HgN/A
4:20 am37 °FPartly cloudy.16 mph87%30.36 "HgN/A
3:50 am37 °FPassing clouds.14 mph87%30.36 "HgN/A
3:20 am37 °FPartly cloudy.13 mph87%30.36 "HgN/A
2:50 am37 °FPassing clouds.13 mph87%30.39 "HgN/A
2:20 am39 °FPartly cloudy.13 mph87%30.39 "HgN/A
1:50 am39 °FPassing clouds.12 mph87%30.42 "HgN/A
1:20 am39 °FPassing clouds.12 mph87%30.42 "HgN/A
12:50 am39 °FPassing clouds.13 mph93%30.42 "HgN/A
12:20 am39 °FPassing clouds.12 mph93%30.42 "HgN/A
11:50 pm
Tue, Dec 6
41 °FPassing clouds.10 mph87%30.42 "HgN/A
11:20 pm41 °FPartly cloudy.10 mph87%30.42 "HgN/A
10:50 pm41 °FOvercast.10 mph87%30.42 "HgN/A
10:20 pm43 °FOvercast.10 mph81%30.42 "HgN/A
9:50 pm43 °FOvercast.9 mph81%30.42 "HgN/A
9:20 pm41 °FOvercast.8 mph87%30.42 "HgN/A
8:50 pm43 °FOvercast.6 mph87%30.45 "HgN/A
8:20 pm43 °FOvercast.5 mph87%30.45 "HgN/A
7:50 pm43 °FOvercast.5 mph87%30.45 "HgN/A
6:50 pm43 °FPassing clouds.5 mph93%30.45 "HgN/A
6:20 pm43 °FPassing clouds.2 mph93%30.45 "HgN/A
5:50 pm43 °FOvercast.2 mph93%30.45 "HgN/A
5:20 pm43 °FOvercast.No wind93%30.45 "HgN/A
4:50 pm43 °FOvercast.2 mph93%30.45 "HgN/A
4:20 pm45 °FPassing clouds.5 mph87%30.45 "HgN/A
3:50 pm45 °FOvercast.5 mph93%30.42 "HgN/A
3:20 pm45 °FOvercast.8 mph93%30.42 "HgN/A
2:50 pm45 °FOvercast.7 mph93%30.42 "HgN/A
2:20 pm45 °FPartly sunny.3 mph93%30.42 "HgN/A
1:50 pm45 °FOvercast.3 mph93%30.42 "HgN/A
1:20 pm45 °FOvercast.2 mph100%30.39 "HgN/A
Weather by CustomWeather, © 2016

See weather overviewHow to use our weather pages